TimeEST,TemperatureF,Dew PointF,Humidity,Sea Level PressureIn,VisibilityMPH,Wind Direction,Wind SpeedMPH,Gust SpeedMPH,PrecipitationIn,Events,Conditions,WindDirDegrees,DateUTC
12:25 AM,19.4,17.6,93,29.80,10.0,NW,3.5,-,N/A,,Overcast,310,2013-01-22 05:25:00
12:51 AM,21.0,18.1,89,30.55,10.0,NW,3.5,-,0.00,,Overcast,310,2013-01-22 05:51:00
1:14 AM,19.4,17.6,93,29.77,9.0,Calm,Calm,-,0.00,,Mostly Cloudy,0,2013-01-22 06:14:00
1:27 AM,19.4,17.6,93,29.77,10.0,Calm,Calm,-,0.00,,Partly Cloudy,0,2013-01-22 06:27:00
1:51 AM,19.0,16.2,89,30.55,10.0,Calm,Calm,-,0.00,,Partly Cloudy,0,2013-01-22 06:51:00
2:11 AM,17.6,15.8,93,29.78,10.0,Calm,Calm,-,N/A,,Mostly Cloudy,0,2013-01-22 07:11:00
2:51 AM,18.1,15.1,88,30.54,10.0,Calm,Calm,-,N/A,,Mostly Cloudy,0,2013-01-22 07:51:00
3:08 AM,17.6,14.0,86,29.77,10.0,WNW,3.5,-,N/A,,Scattered Clouds,300,2013-01-22 08:08:00
3:51 AM,14.0,11.1,88,30.53,10.0,WNW,3.5,-,N/A,,Mostly Cloudy,300,2013-01-22 08:51:00
5:51 AM,16.2,14.0,91,30.55,10.0,Calm,Calm,-,0.00,,Partly Cloudy,0,2013-01-22 10:51:00
6:51 AM,18.1,13.1,81,30.57,10.0,WNW,5.8,-,N/A,,Clear,300,2013-01-22 11:51:00
7:51 AM,18.1,10.0,71,30.59,10.0,WNW,9.2,-,N/A,,Clear,300,2013-01-22 12:51:00
8:51 AM,20.1,8.1,60,30.61,10.0,NW,16.1,23.0,N/A,,Partly Cloudy,310,2013-01-22 13:51:00
9:51 AM,21.0,8.1,57,30.63,10.0,WNW,15.0,-,N/A,,Clear,300,2013-01-22 14:51:00
10:51 AM,23.0,6.1,48,30.63,10.0,NW,18.4,26.5,N/A,,Partly Cloudy,320,2013-01-22 15:51:00
11:51 AM,21.0,3.0,46,30.63,10.0,WNW,11.5,-,N/A,,Partly Cloudy,300,2013-01-22 16:51:00
12:51 PM,22.1,0.1,38,30.62,10.0,NW,13.8,20.7,N/A,,Mostly Cloudy,320,2013-01-22 17:51:00
1:51 PM,22.1,-1.8,35,30.63,10.0,NW,16.1,27.6,N/A,,Mostly Cloudy,320,2013-01-22 18:51:00
2:51 PM,21.0,-4.0,33,30.66,10.0,NW,12.7,21.9,N/A,,Scattered Clouds,310,2013-01-22 19:51:00
3:51 PM,20.1,-2.9,36,30.69,10.0,NW,10.4,-,N/A,,Scattered Clouds,310,2013-01-22 20:51:00
4:51 PM,18.1,-6.0,34,30.72,10.0,WNW,6.9,-,N/A,,Partly Cloudy,290,2013-01-22 21:51:00
5:51 PM,16.2,-2.9,43,30.76,10.0,Variable,5.8,-,N/A,,Clear,0,2013-01-22 22:51:00
6:51 PM,15.1,-2.9,45,30.79,10.0,WNW,5.8,-,N/A,,Clear,300,2013-01-22 23:51:00
7:51 PM,14.0,1.0,56,30.81,10.0,Variable,6.9,-,N/A,,Clear,0,2013-01-23 00:51:00
8:51 PM,14.0,-0.9,52,30.82,10.0,WNW,6.9,-,N/A,,Scattered Clouds,290,2013-01-23 01:51:00
9:51 PM,12.0,-0.9,56,30.83,10.0,WNW,3.5,-,N/A,,Clear,290,2013-01-23 02:51:00
10:51 PM,11.1,1.0,64,30.85,10.0,West,4.6,-,N/A,,Clear,260,2013-01-23 03:51:00
11:51 PM,10.0,-1.8,59,30.85,10.0,Variable,3.5,-,N/A,,Clear,0,2013-01-23 04:51:00